| time (UTC) | temp C | wind direction | speed KPH | gust KPH | rain 1hr cm | rain 24hr cm | rain mn cm | humidity % | barometer mb |
| 20260507220829 | 18 | 257 | 6.4 | 17.7 | 0.00 | 0.00 | 0.00 | 44 | 1009.4 |
| 20260507215229 | 18 | 255 | 6.4 | 11.3 | 0.00 | 0.00 | 0.00 | 42 | 1009.4 |
| 20260507213630 | 19 | 255 | 6.4 | 17.7 | 0.00 | 0.00 | 0.00 | 44 | 1009.4 |
| 20260507212829 | 19 | 260 | 4.8 | 17.7 | 0.00 | 0.00 | 0.00 | 43 | 1009.4 |
| 20260507212029 | 18 | 253 | 6.4 | 14.5 | 0.00 | 0.00 | 0.00 | 44 | 1009.4 |
| 20260507211229 | 19 | 256 | 9.7 | 17.7 | 0.00 | 0.00 | 0.00 | 43 | 1009.5 |
| 20260507210429 | 19 | 268 | 11.3 | 29.0 | 0.00 | 0.00 | 0.00 | 43 | 1009.6 |
| 20260507210029 | 18 | 269 | 9.7 | 29.0 | 0.00 | 0.00 | 0.00 | 43 | 1009.5 |
| 20260507205630 | 18 | 262 | 8.0 | 25.7 | 0.00 | 0.00 | 0.00 | 42 | 1009.5 |
| 20260507205230 | 18 | 259 | 9.7 | 17.7 | 0.00 | 0.00 | 0.00 | 41 | 1009.6 |
| 20260507204429 | 18 | 275 | 11.3 | 17.7 | 0.00 | 0.00 | 0.00 | 41 | 1009.6 |
| 20260507204229 | 18 | 283 | 11.3 | 19.3 | 0.00 | 0.00 | 0.00 | 42 | 1009.7 |
| 20260507204029 | 18 | 292 | 11.3 | 19.3 | 0.00 | 0.00 | 0.00 | 41 | 1009.6 |
| 20260507203929 | 18 | 291 | 11.3 | 19.3 | 0.00 | 0.00 | 0.00 | 41 | 1009.6 |
| 20260507203831 | 18 | 289 | 11.3 | 19.3 | 0.00 | 0.00 | 0.00 | 41 | 1009.5 |
| 20260507203729 | 18 | 270 | 9.7 | 24.1 | 0.00 | 0.00 | 0.00 | 41 | 1009.6 |
| 20260507201951 | 18 | 262 | 6.4 | 14.5 | 0.00 | 0.00 | 0.00 | 43 | 1010.0 |
| 20260507200311 | 18 | 256 | 9.7 | 19.3 | 0.00 | 0.00 | 0.00 | 40 | 1010.2 |
| 20260507194631 | 18 | 253 | 9.7 | 19.3 | 0.00 | 0.00 | 0.00 | 42 | 1010.3 |
| 20260507192951 | 18 | 263 | 9.7 | 24.1 | 0.00 | 0.00 | 0.00 | 41 | 1010.5 |
| 20260507191311 | 18 | 257 | 9.7 | 19.3 | 0.00 | 0.00 | 0.00 | 42 | 1010.7 |
| 20260507185631 | 18 | 261 | 9.7 | 22.5 | 0.00 | 0.00 | 0.00 | 42 | 1010.8 |
| 20260507183951 | 17 | 260 | 8.0 | 14.5 | 0.00 | 0.00 | 0.00 | 45 | 1010.9 |
| 20260507182312 | 17 | 269 | 14.5 | 25.7 | 0.00 | 0.00 | 0.00 | 46 | 1011.1 |
| 20260507180632 | 17 | 269 | 12.9 | 29.0 | 0.00 | 0.00 | 0.00 | 46 | 1011.4 |
| 20260507174951 | 17 | 265 | 9.7 | 20.9 | 0.00 | 0.00 | 0.00 | 48 | 1011.5 |
| 20260507173311 | 17 | 264 | 11.3 | 25.7 | 0.00 | 0.00 | 0.00 | 46 | 1011.9 |
| 20260507171631 | 16 | 274 | 11.3 | 25.7 | 0.00 | 0.00 | 0.00 | 49 | 1012.1 |
| 20260507165951 | 16 | 271 | 11.3 | 27.4 | 0.00 | 0.00 | 0.00 | 50 | 1012.3 |
| 20260507164311 | 16 | 267 | 12.9 | 22.5 | 0.00 | 0.00 | 0.00 | 53 | 1012.5 |
| 20260507162631 | 16 | 270 | 11.3 | 27.4 | 0.00 | 0.00 | 0.00 | 50 | 1012.7 |
| 20260507160951 | 16 | 271 | 11.3 | 20.9 | 0.00 | 0.00 | 0.00 | 56 | 1012.8 |
| 20260507155312 | 15 | 268 | 11.3 | 20.9 | 0.00 | 0.00 | 0.00 | 56 | 1012.8 |
| 20260507153631 | 15 | 261 | 9.7 | 20.9 | 0.00 | 0.00 | 0.00 | 56 | 1012.9 |
| 20260507151951 | 15 | 268 | 9.7 | 27.4 | 0.00 | 0.00 | 0.00 | 58 | 1013.0 |
| 20260507150311 | 14 | 267 | 8.0 | 25.7 | 0.00 | 0.00 | 0.00 | 58 | 1013.0 |
| 20260507144631 | 13 | 267 | 8.0 | 19.3 | 0.00 | 0.00 | 0.00 | 62 | 1013.1 |
| 20260507142951 | 13 | 259 | 6.4 | 14.5 | 0.00 | 0.00 | 0.00 | 63 | 1013.3 |
| 20260507141311 | 12 | 258 | 6.4 | 12.9 | 0.00 | 0.00 | 0.00 | 62 | 1013.6 |
| 20260507135631 | 11 | 265 | 4.8 | 16.1 | 0.00 | 0.00 | 0.00 | 62 | 1013.6 |
| 20260507132310 | 10 | 264 | 4.8 | 11.3 | 0.00 | 0.00 | 0.00 | 64 | 1013.8 |
| 20260507130630 | 10 | 264 | 3.2 | 11.3 | 0.00 | 0.00 | 0.00 | 64 | 1013.8 |
| 20260507124951 | 10 | 254 | 3.2 | 6.4 | 0.00 | 0.00 | 0.00 | 63 | 1013.8 |
| 20260507123311 | 8 | 256 | 1.6 | 9.7 | 0.00 | 0.00 | 0.00 | 64 | 1013.8 |
| 20260507121631 | 8 | 248 | 1.6 | 8.0 | 0.00 | 0.00 | 0.00 | 65 | 1013.7 |
| 20260507115950 | 7 | 247 | 1.6 | 8.0 | 0.00 | 0.00 | 0.00 | 67 | 1013.5 |
| 20260507114312 | 6 | 241 | 1.6 | 9.7 | 0.00 | 0.00 | 0.00 | 70 | 1013.3 |
| 20260507112631 | 5 | 239 | 0.0 | 4.8 | 0.00 | 0.00 | 0.00 | 74 | 1013.5 |
| 20260507110951 | 4 | 245 | 0.0 | 4.8 | 0.00 | 0.00 | 0.00 | 77 | 1013.5 |
| 20260507105310 | 3 | 244 | 0.0 | 3.2 | 0.00 | 0.00 | 0.00 | 79 | 1013.7 |
| 20260507103630 | 3 | 251 | 0.0 | 1.6 | 0.00 | 0.00 | 0.00 | 80 | 1013.9 |
| 20260507101952 | 2 | 231 | 0.0 | 3.2 | 0.00 | 0.00 | 0.00 | 87 | 1014.0 |
| 20260507100311 | 2 | 246 | 0.0 | 1.6 | 0.00 | 0.00 | 0.00 | 91 | 1014.1 |
| 20260507094632 | 1 | 0 | 0.0 | 0.0 | 0.00 | 0.00 | 0.00 | 90 | 1014.1 |
| 20260507092950 | 1 | 0 | 0.0 | 0.0 | 0.00 | 0.00 | 0.00 | 90 | 1014.2 |
| 20260507091311 | 1 | 0 | 0.0 | 0.0 | 0.00 | 0.00 | 0.00 | 91 | 1014.3 |
| 20260507085631 | 1 | 0 | 0.0 | 0.0 | 0.00 | 0.00 | 0.00 | 91 | 1014.3 |
| 20260507083950 | 1 | 0 | 0.0 | 0.0 | 0.00 | 0.00 | 0.00 | 90 | 1014.5 |
| 20260507082310 | 1 | 0 | 0.0 | 0.0 | 0.00 | 0.00 | 0.00 | 89 | 1014.6 |
| 20260507080630 | 2 | 0 | 0.0 | 0.0 | 0.00 | 0.00 | 0.00 | 89 | 1014.5 |
| 20260507073310 | 3 | 0 | 0.0 | 0.0 | 0.00 | 0.00 | 0.00 | 88 | 1014.8 |
| 20260507071630 | 3 | 0 | 0.0 | 0.0 | 0.00 | 0.00 | 0.00 | 87 | 1014.9 |
| 20260507065950 | 3 | 0 | 0.0 | 0.0 | 0.00 | 0.00 | 0.00 | 86 | 1015.1 |
| 20260507064310 | 4 | 0 | 0.0 | 0.0 | 0.00 | 0.00 | 0.00 | 86 | 1015.2 |
| 20260507062630 | 4 | 0 | 0.0 | 0.0 | 0.00 | 0.00 | 0.00 | 87 | 1015.3 |
| 20260507060950 | 4 | 0 | 0.0 | 0.0 | 0.00 | 0.00 | 0.00 | 89 | 1015.4 |
| 20260507055310 | 3 | 0 | 0.0 | 0.0 | 0.00 | 0.00 | 0.00 | 88 | 1015.6 |
| 20260507053631 | 3 | 0 | 0.0 | 0.0 | 0.00 | 0.00 | 0.00 | 88 | 1015.7 |
| 20260507051950 | 3 | 0 | 0.0 | 0.0 | 0.00 | 0.00 | 0.00 | 88 | 1015.6 |
| 20260507050310 | 3 | 0 | 0.0 | 0.0 | 0.00 | 0.00 | 0.00 | 88 | 1015.7 |
| 20260507044632 | 3 | 0 | 0.0 | 0.0 | 0.00 | 0.00 | 0.00 | 88 | 1015.6 |
| 20260507042950 | 2 | 0 | 0.0 | 0.0 | 0.00 | 0.00 | 0.00 | 86 | 1015.7 |
| 20260507041310 | 3 | 0 | 0.0 | 0.0 | 0.00 | 0.00 | 0.00 | 85 | 1015.6 |
| 20260507035631 | 3 | 0 | 0.0 | 0.0 | 0.00 | 0.00 | 0.00 | 85 | 1015.7 |
| 20260507033950 | 3 | 0 | 0.0 | 0.0 | 0.00 | 0.00 | 0.00 | 82 | 1015.7 |
| 20260507032310 | 3 | 0 | 0.0 | 0.0 | 0.00 | 0.00 | 0.00 | 82 | 1015.8 |
| 20260507030630 | 3 | 0 | 0.0 | 0.0 | 0.00 | 0.00 | 0.00 | 79 | 1015.7 |
| 20260507024950 | 5 | 0 | 0.0 | 0.0 | 0.00 | 0.00 | 0.00 | 79 | 1015.8 |
| 20260507023310 | 5 | 0 | 0.0 | 0.0 | 0.00 | 0.00 | 0.00 | 75 | 1015.6 |
| 20260507021630 | 6 | 0 | 0.0 | 0.0 | 0.00 | 0.00 | 0.00 | 71 | 1015.4 |
| 20260507015950 | 7 | 0 | 0.0 | 0.0 | 0.00 | 0.00 | 0.00 | 67 | 1015.3 |
| 20260507014311 | 8 | 280 | 0.0 | 4.8 | 0.00 | 0.00 | 0.00 | 54 | 1015.1 |
| 20260507012630 | 9 | 0 | 0.0 | 0.0 | 0.00 | 0.00 | 0.00 | 48 | 1015.0 |
| 20260507010950 | 11 | 303 | 0.0 | 1.6 | 0.00 | 0.00 | 0.00 | 44 | 1015.0 |
| 20260507005310 | 12 | 304 | 3.2 | 4.8 | 0.00 | 0.00 | 0.00 | 40 | 1015.1 |
| 20260507003630 | 12 | 305 | 4.8 | 6.4 | 0.00 | 0.00 | 0.00 | 39 | 1014.9 |
| 20260507001950 | 12 | 306 | 6.4 | 12.9 | 0.00 | 0.00 | 0.00 | 39 | 1014.9 |
| 20260507000310 | 12 | 308 | 3.2 | 11.3 | 0.00 | 0.00 | 0.00 | 42 | 1014.8 |
| 20260506234630 | 12 | 305 | 8.0 | 11.3 | 0.00 | 0.00 | 0.00 | 42 | 1014.9 |
| 20260506232951 | 13 | 302 | 11.3 | 19.3 | 0.00 | 0.00 | 0.00 | 41 | 1015.1 |
| 20260506231310 | 13 | 309 | 9.7 | 16.1 | 0.00 | 0.00 | 0.00 | 36 | 1015.2 |
| 20260506225630 | 13 | 292 | 8.0 | 16.1 | 0.00 | 0.00 | 0.00 | 40 | 1015.2 |
| 20260506223950 | 13 | 306 | 9.7 | 19.3 | 0.00 | 0.00 | 0.00 | 38 | 1015.2 |
| 20260506222310 | 13 | 290 | 9.7 | 16.1 | 0.00 | 0.00 | 0.00 | 39 | 1015.2 |